Regional Weather Roundup
Issued by NWS Wakefield, VA

Home | Current Version | Previous Version | Text Only | Print | Product List | Glossary Off
Versions: 1 2 3 4 5 6 7 8 9 10 11 12 13 14 15 16 17 18 19 20 21 22 23 24 25 26 27 28 29 30 31 32 33 34 35 36 37 38 39 40 41 42 43 44 45 46 47 48 49 50

000
ASUS41 KAKQ 010910
RWRAKQ

REGIONAL WEATHER ROUNDUP
NATIONAL WEATHER SERVICE WAKEFIELD VA
500 AM EDT FRI AUG 01 2014

Note: "fair" indicates few or no clouds below 12,000 feet with no
significant weather and/or obstructions to visibility. * = Denotes
station may not report precipitation (e.g., rain,snow,etc.),
thunder or fog.

VAZ042-051-052>054-056-011000-
NORTHERN VIRGINIA

CITY           SKY/WX    TMP DP  RH WIND       PRES   REMARKS
WASH NATIONAL  CLOUDY    77  67  71 S9        30.14S
DULLES         CLOUDY    69  65  86 S3        30.13S
FORT BELVOIR   CLOUDY    71  67  89 SE2       30.14S
QUANTICO       CLOUDY    74  67  78 SW5       30.14F
FREDERICKSBRG* CLOUDY    72  68  87 S3        30.13S
STAFFORD*      CLOUDY    68  68 100 CALM      30.17F
WARRENTON      CLOUDY    72  71  96 CALM      30.12F
CULPEPER*      CLOUDY   N/A N/A N/A CALM      30.13F
MANASSAS*      CLOUDY    70  70 100 CALM      30.13S
LEESBURG*      CLOUDY    68  68 100 CALM      30.14S
WINCHESTER     MOCLDY    63  61  94 CALM      30.13S
$$

VAZ048-049-060>072-079>083-011000-
CENTRAL AND SOUTH CENTRAL VIRGINIA...AND NORTH CENTRAL NORTH CAROLINA

CITY           SKY/WX    TMP DP  RH WIND       PRES   REMARKS
RICHMOND       CLOUDY    71  67  87 SE3       30.14S
CHESTERFIELD*  CLOUDY   N/A N/A N/A CALM      30.15S
HANOVER        CLOUDY    70  68  93 CALM      30.16R
TAPPAHANNOCK*  CLOUDY    71  64  81 CALM      30.15S
CHARLOTTSVILLE CLOUDY    69  64  84 S5        30.14S
ORANGE*        CLOUDY    68  64  88 CALM      30.15S
LOUISA*        CLOUDY    70  66  88 CALM      30.13S
FARMVILLE*     LGT RAIN  68  66  94 CALM      30.13S
SOUTH HILL*    LGT RAIN  72  72 100 CALM      30.20R
ROANOKE RAPIDS RAIN      68  68 100 CALM      30.13R
RALEIGH        CLOUDY    70  67  90 NE6       30.11F
$$

VAZ088>098-011000-
SOUTHEAST VIRGINIA

CITY           SKY/WX    TMP DP  RH WIND       PRES   REMARKS
NORFOLK        CLOUDY    73  65  75 NE3       30.13F
VIRGINIA BEACH CLOUDY    71  66  84 CALM      30.12F
NORFOLK NAVAL  CLOUDY    74  65  73 CALM      30.14F
WEST POINT*    CLOUDY    72  68  88 CALM      30.16S
NEWPORT NEWS   CLOUDY    72  67  84 NE3       30.13F
LANGLEY AFB    CLOUDY    71  69  91 E3        30.13F
FORT EUSTIS    CLOUDY    72  72 100 E3        30.11F
WILLIAMSBURG*  CLOUDY    73  70  88 CALM      30.13F
FRANKLIN*      CLOUDY    68  68 100 CALM      30.12F
WAKEFIELD      CLOUDY    69  66  90 CALM      30.13F
$$

VAZ020-022-025-037-045-011000-
WESTERN AND SOUTHWEST VIRGINIA

CITY           SKY/WX    TMP DP  RH WIND       PRES   REMARKS
STAUNTON*      CLOUDY    66  62  87 CALM      30.17F
HOT SPRINGS VA CLOUDY    58  56  92 S6        30.26F
LYNCHBURG      LGT RAIN  67  66  97 CALM      30.18S FOG
DANVILLE       LGT RAIN  68  63  84 N3        30.15R
MARTINSVILLE   RAIN      66  66  98 CALM      30.19S
ROANOKE        LGT RAIN  66  64  93 E3        30.18F
BLACKSBURG     DRIZZLE   64  64 100 E5          N/A
DUBLIN*        LGT RAIN  64  64 100 CALM      30.19F
MARION*        CLOUDY    63  60  92 NE6       30.20F FOG
HILLSVILLE*    LGT RAIN  62  61  99 SE6       30.19F
RICHLANDS*     CLOUDY    68  59  72 CALM      30.17S
WISE*          MOCLDY    63  54  72 CALM      30.16F
ABINGDON*      CLOUDY    67  59  74 E7        30.14S
$$

MDZ021>025-VAZ099-100-011000-
SOUTHERN MARYLAND AND THE DELMARVA PENINSULA

CITY           SKY/WX    TMP DP  RH WIND       PRES   REMARKS
PATUXENT RIVER CLOUDY    73  65  75 S5        30.14F
BAY BRIDGE APT   N/A     75  68  78 S8        30.14S
LEONARDTOWN    CLOUDY    72  63  73 CALM      30.16F
DOVER          CLOUDY    70  68  92 S7        30.14F
GEORGETOWN     CLOUDY    69  65  86 S12       30.17F
EASTON         CLOUDY    73  73 100 CALM      30.19S
CAMBRIDGE      CLOUDY    77  68  73 S3        30.15S
SALISBURY      CLOUDY    70  65  84 CALM      30.16F
OCEAN CITY     CLOUDY    74  67  78 SW3       30.16F
WALLOPS ISLAND CLOUDY    74  68  81 CALM      30.16F
ACCOMACK*        N/A     70  64  83 CALM      30.15S
$$

NCZ012>017-030>032-011000-
EASTERN NORTH CAROLINA

CITY           SKY/WX    TMP DP  RH WIND       PRES   REMARKS
ELIZABETH CITY MOCLDY    73  69  87 E6        30.13S
AHOSKIE*       CLOUDY    69  65  87 CALM      30.13S
EDENTON*       MOCLDY    73  68  85 CALM      30.12S
CURRITUCK*     MOCLDY    71  64  79 CALM      30.14S
KILL DEVIL HLS MOCLDY    75  69  80 E5        30.12S
MANTEO         NOT AVBL
CAPE HATTERAS  CLOUDY    76  71  85 E6        30.10F
GOLDSBORO      LGT RAIN  72  71  98 E8        30.06F
WASHINGTON     CLOUDY    70  67  90 CALM      30.11S
GREENVILLE     CLOUDY    72  68  88 E3        30.12S
NEW BERN       LGT RAIN  76  68  76 E3        30.09F
WILMINGTON     MOCLDY    78  75  90 E10       30.03S
$$

VAZ048-011000-
ELSEWHERE

CITY           SKY/WX    TMP DP  RH WIND       PRES   REMARKS
HARRISBURG PA  MOCLDY    68  64  87 E3        30.13R
BALTIMORE      CLOUDY    71  67  87 CALM      30.13F
ANNAPOLIS      CLOUDY    74  68  81 S12       30.13F
ANDREWS AFB    CLOUDY    70  69  95 S7        30.14S
WILMINGTON DE  MOCLDY    72  68  87 S8        30.16S
PHILADELPHIA   CLOUDY    72  66  81 SW7       30.17S
WILDWOOD NJ*   CLOUDY    72  64  78 S6        30.18S
ATLANTIC CITY  CLOUDY    72  67  84 S5        30.17F
HENDERSON NC   DRIZZLE   69  67  94 N5        30.13S
GREENSBORO     LGT RAIN  65  64  97 N6        30.14S
ROCKY MOUNT    CLOUDY    70  67  90 NE6       30.11S
FAYETTEVILLE   LGT RAIN  72  69  90 NE6       30.05F
CHARLOTTE      RAIN      65  63  93 N17G23    30.06F FOG
$$

VAZ100-011000-
MARINE

STATION/POSITION TIME  TEMP    WIND        PRES    WAVE   SWELL
                       AIR SEA DIR/SP/G            HT/PER HT/PER
                 (UTC) (F)     (DEG/KT/KT) (MB)    (FT/S) (FT/S)
44066 TX TWR #4  0900   74 74  270/  6/  8 1021.7F   3/ 8   3/ 8
CAPE MAY NJ      0900   72 76  190/  5/  7 1021.1S
LEWES DE         0900   72 71  200/  4/  6 1021.1S
15NM E FENWICK I 0900   74 74              1021.8S   3/ 7
OCEAN-CITY-INLET 0900   71 71  190/  3/  4 1020.9F
WACHAPREAGUE VA  0900   75 78  180/  3/  5 1020.8F
THOMAS POINT MD  0900   75 78  190/ 16/ 18 1021.0F
GOOSES REEF MD   0900   76     210/ 14/ 16 1021.1F
COVE POINT MD    0900   74     210/  9/ 10 1020.7S
SOLOMONS ISLAND  0900      79                N/A
BISHOPS HEAD MD  0900   76 77  170/ 10/ 12 1020.5S
PINEY POINT MD   0900          190/ 10/ 11   N/A
POTOMAC MD       0900   75     210/ 10/ 12 1020.1S
CAMBRIDGE MD     0900   74 78  180/  3/  7 1020.6S
LEWISETTA VA     0900   73 78  190/  4/  5 1020.4F
RAPPAHANNOCK LGT 0900          140/  6/  7 1021.2F
STINGRAY PT      0900   76     190/  6/  8 1021.2F
YORK RVR RNG VA  0900   76     160/  5/  5 1020.0F
YORKTOWN VA      0900   73 79  200/  1/  2 1020.2F
JAMESTOWN VA     0900   73     100/  2/  4   N/A
DOMINION TERM VA 0900   76      10/  1/  3 1020.2F
KIPTOPEKE VA     0900      80  110/  3/  4   N/A
CHES BAY BRIDGE  0900   76 77   80/  3/  3 1019.8F
CAPE HENRY VA    0900   75     130/  5/  5 1019.1F
WILLOUBY STN VA  0900           80/  5/  5 1019.4F
S CRANEY ISL VA  0900           50/  5/  6 1020.2F
CAPE HENRY BUOY  0900      77                N/A     3/ 7
1ST LANDING BUOY 0900   76     140/  4/  6 1020.1F
CAPE CHARLES BUO 0900      75                N/A     2/ 4
OFFSHORE WE BUOY 0900      78                N/A     3/ 7
64NM E OF VA BCH 0900   77 78   90/  6/  8 1020.3F   2/ 7   2/ 7
DUCK PIER NC     0900   77 76  100/ 11/ 12 1019.5R
44056 DUCK FRF   0900                        N/A     2/ 8
OREGON INLET NC  0900   77 79   70/  5/  8 1020.0R
HATTERAS NC      0900   78 80   70/  5/  6 1019.5F
DIAMOND SHLS NC  0900          VRB 14/ 16  1018.7F   4/ 7   2/ 7
CAPE LOOKOUT NC  0800   80     100/ 16/ 17 1018.2F
$$


USA.gov is the U.S. government's official web portal to all federal, state and local government web resources and services.